Theta_e
306 305 304 305 307 308 309 311 312 312 313 314 315 313 312 312 313 316 316 317 317 316 316 317 317 316 317 318 318 319 319 319 320 320 321 320 320 322 321 323 321 325 343 349 346 346 346 344 343 345 345 344 346 346 345 345 345 345 343 342 344 342 341 341 341 339 339 339 339 339 339 339 338 338 338 337 336 337 337 336 336 336 333 330 332 332
306 305 304 305 306 308 309 310 311 312 313 313 315 313 312 313 313 315 316 316 317 316 315 317 317 317 317 318 318 318 319 318 320 320 321 321 320 322 322 324 322 320 340 349 347 347 346 344 344 346 346 344 345 346 347 345 345 344 343 342 343 342 342 342 340 339 339 339 338 337 338 338 337 337 338 336 335 335 334 335 336 337 336 334 335 335
304 305 304 304 306 308 309 310 311 311 312 312 314 313 312 313 313 315 315 316 317 315 315 317 317 316 317 318 318 318 319 318 320 320 321 321 321 323 321 323 322 319 341 351 347 346 346 344 345 346 346 344 345 347 346 345 344 344 343 342 343 342 342 341 340 340 339 339 338 337 337 337 337 337 337 334 333 333 332 334 336 337 337 337 338 336
303 305 305 305 305 308 309 310 311 311 312 313 313 313 312 313 313 313 314 316 317 316 316 317 316 317 317 318 318 319 319 318 320 320 321 320 320 322 320 322 322 321 344 352 347 347 347 345 347 346 345 344 345 347 346 345 344 343 343 342 343 343 341 340 340 340 339 338 338 337 337 337 337 336 335 335 335 335 334 335 337 337 336 335 335 333
303 305 306 306 305 307 309 310 311 312 312 313 313 313 313 313 314 313 314 315 316 316 316 316 315 315 317 318 317 318 320 319 320 319 321 321 320 322 320 323 321 322 345 352 347 348 347 346 347 347 345 344 345 347 346 345 344 343 343 342 342 343 341 340 340 339 338 337 337 337 336 336 338 336 335 337 337 336 336 336 335 335 334 333 332 330
304 304 306 306 305 306 309 311 312 312 312 312 313 313 313 314 315 315 315 315 312 312 316 315 313 313 316 317 317 318 318 318 320 320 320 321 321 322 320 323 321 323 344 350 347 347 348 346 346 346 344 344 346 347 345 345 344 343 343 343 342 342 341 340 340 339 338 337 336 336 336 336 337 337 337 337 337 336 336 335 334 334 335 333 330 331
304 305 305 306 306 306 308 311 312 313 313 312 313 313 313 314 315 316 315 313 310 311 315 316 313 313 314 316 317 318 318 318 320 320 320 320 320 322 320 322 322 322 341 350 348 348 348 346 346 346 345 343 346 347 345 345 344 343 344 343 343 342 342 341 340 339 338 338 336 335 336 335 336 337 337 335 336 337 335 334 334 335 334 331 329 332
304 305 304 306 306 306 308 311 312 313 312 312 314 314 314 314 315 316 315 313 312 313 315 316 314 312 312 315 318 319 318 318 319 319 320 320 320 321 320 322 322 322 337 346 345 346 347 346 346 345 344 344 345 346 345 344 344 343 343 343 343 342 342 341 339 339 337 338 336 334 335 336 336 336 335 335 336 337 334 333 334 334 332 330 330 333
304 305 305 305 307 307 308 311 312 313 313 313 314 315 314 314 315 316 315 314 314 314 313 313 314 313 311 315 318 318 318 317 319 319 320 320 320 321 321 321 323 323 331 340 339 338 343 346 346 344 344 344 345 345 344 343 343 344 344 343 343 342 341 341 339 339 338 337 336 335 335 335 335 335 336 336 336 335 334 333 334 333 331 332 331 332
305 306 306 305 307 308 309 311 312 312 313 313 315 315 314 314 314 316 316 314 314 314 312 312 312 312 311 313 316 317 317 317 319 320 319 320 320 320 321 320 324 324 327 337 338 334 339 345 345 343 343 343 343 343 342 343 344 344 344 343 343 342 341 341 339 338 338 337 337 336 335 335 334 336 337 336 335 335 334 333 333 332 331 332 332 331
305 306 307 306 307 309 310 311 312 313 313 314 314 314 314 314 315 316 316 314 314 314 313 312 313 313 311 312 315 316 318 319 319 320 320 321 320 320 322 321 322 324 324 334 341 340 342 346 345 343 343 343 344 344 342 344 345 344 344 343 342 342 341 340 339 338 338 337 337 336 334 334 335 336 337 336 333 333 332 332 332 331 331 332 331 331
304 305 306 307 307 309 310 311 312 313 313 313 314 314 314 314 314 314 314 315 314 314 312 312 314 313 311 313 316 318 319 320 320 321 320 321 321 320 322 321 322 324 324 333 344 346 346 346 345 344 343 343 344 345 344 344 344 344 344 343 342 341 341 340 339 338 338 337 336 336 334 335 335 334 334 334 330 330 330 331 331 331 331 331 331 333
305 304 305 307 307 308 310 311 312 313 313 313 313 314 313 313 314 314 313 314 314 313 312 314 313 313 312 314 318 319 319 320 321 321 321 321 321 320 321 322 322 323 323 333 343 347 348 347 345 344 343 343 344 345 344 344 343 344 344 343 342 341 340 339 338 338 337 336 336 335 335 335 333 332 332 331 329 330 331 331 332 331 330 330 330 333
305 305 305 307 308 309 310 311 312 313 313 313 313 313 313 312 315 316 314 313 313 312 313 315 314 313 313 315 319 320 319 320 321 322 322 321 321 321 320 321 321 322 324 330 339 345 348 347 346 344 343 342 344 345 344 343 343 343 344 343 341 341 339 339 338 338 337 336 336 336 335 335 334 332 331 330 330 332 332 332 332 330 329 328 329 332
306 306 306 307 308 310 310 311 313 313 312 313 313 314 313 313 315 315 313 313 313 312 312 314 314 312 313 316 319 320 320 322 323 323 322 321 321 321 321 321 321 323 323 327 338 346 348 347 346 344 343 343 343 343 344 343 342 343 343 342 342 341 340 339 338 338 337 337 336 336 335 335 335 334 332 331 331 332 332 332 331 328 327 327 329 333
306 307 307 308 310 311 311 311 313 314 313 314 314 314 313 313 314 313 313 314 314 313 313 313 314 314 315 319 322 320 320 323 325 323 322 323 322 320 321 321 320 323 323 326 338 346 347 346 345 344 343 343 343 343 343 342 341 342 342 341 342 341 340 339 338 338 338 338 337 337 335 334 334 334 333 332 332 333 332 330 329 327 326 325 328 334
307 307 308 308 309 311 312 312 312 313 314 314 313 313 314 315 315 313 313 315 315 315 315 313 313 315 316 318 320 321 320 322 324 323 323 324 323 322 324 322 322 324 323 327 338 343 345 345 344 343 343 343 343 342 342 341 341 342 342 342 342 341 340 339 338 338 338 338 338 338 336 334 333 333 333 332 332 333 330 328 328 327 326 327 331 334
308 308 308 307 308 310 312 312 312 313 314 314 312 313 314 315 315 314 314 315 316 315 315 313 312 313 314 316 319 321 320 323 323 322 324 326 325 324 324 324 324 324 324 332 343 345 344 344 344 343 343 343 342 342 341 340 341 342 342 342 341 341 340 339 339 339 339 338 339 338 337 335 333 333 334 333 334 333 331 330 330 329 329 330 333 333
308 309 309 308 309 311 312 312 312 313 314 313 314 314 315 314 314 314 315 316 317 316 314 313 312 313 313 315 318 319 320 323 324 322 323 325 326 326 325 324 324 325 325 335 346 347 345 344 344 343 344 343 341 341 340 339 341 342 342 342 341 340 340 340 339 339 339 339 339 339 338 335 334 334 334 334 334 333 333 332 332 332 332 332 333 332
308 309 310 309 309 311 311 311 312 312 314 314 314 314 314 315 314 314 315 315 316 316 315 314 314 313 315 317 319 320 322 323 323 323 323 325 326 327 325 324 325 326 327 335 343 344 344 344 344 343 344 343 342 341 340 340 341 342 341 341 341 341 340 340 339 339 339 339 339 339 338 336 335 334 334 335 333 332 333 333 333 333 333 332 332 332
308 310 311 310 309 311 311 311 312 313 313 313 313 313 313 314 315 315 315 314 314 314 315 316 315 313 316 320 321 321 322 323 324 325 325 325 326 326 325 324 326 326 329 337 341 340 340 343 344 343 343 343 342 341 340 340 341 341 340 341 340 340 341 340 339 339 339 339 339 338 337 336 335 334 335 335 333 331 331 331 332 332 331 332 332 331
308 310 311 311 308 309 311 311 312 313 313 313 313 313 313 313 314 314 315 314 313 314 314 315 315 315 317 321 321 322 322 322 323 323 324 326 324 325 327 325 325 327 333 341 343 342 342 343 344 343 344 343 342 341 339 340 341 340 340 340 340 340 340 340 339 339 339 339 339 338 337 336 334 334 334 333 331 330 329 329 331 331 331 331 331 330
310 311 312 312 309 309 311 312 312 313 313 313 313 313 314 314 313 314 315 314 313 314 314 314 315 317 321 322 322 324 323 321 322 322 323 325 324 326 327 325 327 332 336 340 343 343 343 344 344 343 343 342 341 340 339 340 341 340 340 339 340 340 340 340 339 339 339 338 338 337 336 336 334 334 334 332 330 329 329 330 331 331 331 331 330 330
311 311 311 312 310 309 311 311 312 313 313 314 313 313 315 315 314 315 316 316 315 314 314 314 315 318 324 326 326 326 323 320 322 323 323 325 325 326 327 328 331 335 336 338 341 342 343 344 344 343 341 341 340 340 340 340 340 340 340 339 340 340 340 339 339 339 339 337 336 336 336 336 335 334 334 333 331 329 329 331 330 330 331 331 329 329
311 311 312 312 311 310 312 312 313 313 313 313 314 314 315 315 315 317 317 317 316 315 314 314 314 317 324 328 328 326 323 322 322 322 322 325 326 327 328 330 332 333 334 334 337 341 343 344 343 342 341 340 340 340 340 339 339 339 340 340 340 340 340 339 339 338 337 336 335 336 336 335 335 334 333 333 332 330 331 331 330 329 331 330 329 329
312 312 312 313 312 312 312 312 312 313 313 313 314 314 314 315 315 316 316 317 317 315 314 314 315 318 324 326 325 324 323 324 324 322 322 324 326 326 327 330 331 332 334 333 333 336 340 342 341 341 340 339 340 340 340 340 339 339 340 340 339 339 339 339 338 337 336 335 335 336 336 335 334 333 333 332 332 331 331 330 330 330 331 330 329 328
313 313 313 313 312 312 312 312 313 313 313 314 314 313 314 315 315 316 316 316 315 315 317 319 320 321 323 322 322 324 324 327 326 324 322 323 324 325 326 331 333 332 335 337 337 337 339 340 341 340 340 340 340 340 340 339 339 339 339 339 338 339 339 338 337 336 335 336 336 335 335 335 334 333 332 332 331 332 331 329 330 331 331 330 329 328
313 313 313 313 313 312 312 312 312 313 313 313 314 314 314 315 315 317 317 317 317 315 318 323 324 322 322 323 323 324 326 329 329 327 327 328 329 330 330 334 335 334 337 341 341 341 341 340 340 340 340 340 340 339 338 338 339 339 339 338 338 339 338 336 335 335 335 336 336 335 334 334 332 332 332 332 331 331 330 330 331 332 331 329 328 327
314 314 313 313 313 313 313 313 312 313 314 314 314 314 314 315 316 317 317 319 319 317 318 323 325 324 326 327 326 326 328 329 328 330 332 333 333 334 333 336 337 335 338 342 342 342 341 340 340 340 340 340 339 338 339 339 339 339 338 338 338 338 337 336 335 335 335 335 335 335 334 333 332 332 332 331 332 331 331 330 331 331 330 329 327 326
314 314 314 314 314 313 313 314 313 313 314 314 314 315 315 315 316 316 317 320 322 321 320 324 327 327 327 327 328 329 330 331 328 329 332 333 334 335 334 335 335 334 337 341 342 341 340 340 340 340 340 339 339 338 339 339 339 339 338 338 338 338 336 335 335 335 335 335 334 333 332 332 332 332 332 331 331 331 330 330 330 331 330 328 326 325
314 314 315 315 315 314 314 313 312 313 314 313 314 314 315 316 316 316 318 322 324 322 321 323 325 325 326 329 332 333 333 333 330 329 333 334 333 334 333 333 332 332 336 340 341 340 339 340 341 340 339 339 339 339 339 339 339 339 339 338 338 337 336 335 335 335 335 334 334 333 332 332 332 332 332 331 331 331 330 330 330 330 329 327 326 324
315 314 315 316 316 315 314 314 313 313 314 314 314 315 314 316 317 316 318 322 324 322 320 321 323 325 328 330 332 333 335 334 332 333 335 335 334 334 335 334 333 334 338 339 339 337 338 340 341 340 339 339 340 340 339 339 339 338 338 338 337 336 335 335 335 334 333 333 333 332 332 331 332 332 331 330 330 331 330 329 329 329 328 327 325 323
316 315 315 316 316 316 314 314 314 313 315 315 316 317 316 316 317 316 317 321 323 322 320 320 322 325 328 329 330 333 335 336 335 335 335 335 335 335 336 337 336 336 338 338 337 337 338 340 341 339 339 339 339 339 339 339 339 338 337 337 337 336 336 335 334 333 333 333 332 332 331 330 331 331 330 329 330 331 329 328 328 328 327 325 324 321
316 316 315 316 317 316 315 316 316 314 315 317 317 318 317 316 316 316 317 320 321 320 319 321 322 323 325 326 328 334 336 335 335 335 335 335 335 335 336 337 337 337 337 336 337 339 340 340 340 339 339 339 339 339 338 338 338 337 337 337 337 336 336 335 334 334 334 333 332 330 329 329 329 329 329 330 331 331 329 327 327 327 326 324 322 320
316 315 315 315 316 317 315 316 317 316 316 317 318 318 317 317 317 316 317 317 317 318 319 320 320 322 326 327 327 331 335 333 334 335 335 335 334 334 335 336 336 336 337 337 338 340 340 340 340 339 339 339 338 338 337 337 337 337 336 337 337 336 335 334 334 333 333 332 331 329 328 328 328 328 329 331 331 330 328 326 327 326 324 322 321 319
316 316 315 315 316 318 316 314 315 316 317 319 320 318 317 319 318 317 317 317 316 318 318 320 319 321 327 329 328 331 334 334 335 336 336 335 334 334 334 336 336 336 337 338 339 340 340 339 339 339 338 338 338 337 337 337 337 337 336 336 336 335 335 334 333 333 332 331 329 328 327 327 328 329 329 329 329 327 327 326 326 325 324 322 320 318
316 317 316 317 318 317 314 315 316 317 317 318 319 318 318 318 318 318 318 317 318 317 318 319 318 320 328 330 330 333 335 336 336 336 337 336 335 335 335 336 337 337 338 339 339 340 340 339 339 338 337 337 337 337 337 337 337 336 336 335 335 335 334 333 332 331 329 328 328 328 327 327 329 329 329 327 327 326 325 325 325 324 323 322 320 317
315 317 317 317 318 316 315 317 318 317 317 317 317 318 320 318 318 320 317 316 318 318 318 320 319 321 327 330 331 334 335 336 336 336 336 335 334 335 336 337 338 337 338 339 339 339 339 338 338 337 336 336 336 336 336 336 336 336 335 334 334 334 332 331 330 329 328 327 327 327 327 327 328 329 328 327 327 326 325 325 324 323 321 320 318 316
315 317 318 318 318 317 317 318 317 317 319 322 322 322 320 318 320 320 316 315 319 320 321 322 321 322 328 331 333 334 334 335 336 337 336 334 333 334 334 335 337 338 338 339 339 338 338 337 337 336 336 336 336 335 336 335 335 335 335 333 333 333 331 329 328 327 326 326 326 326 326 326 328 330 330 329 328 327 326 325 324 322 319 318 317 315
317 317 317 317 318 317 318 318 319 321 323 325 325 324 320 319 320 318 315 318 323 324 324 322 322 327 331 332 334 334 333 334 335 335 335 333 333 334 334 334 336 338 338 338 338 338 338 337 336 336 336 335 335 335 335 335 334 334 333 332 332 331 330 329 328 327 325 324 324 325 327 328 330 331 330 329 327 327 326 325 322 320 318 317 315 313
318 317 317 317 317 317 318 320 322 324 325 325 326 324 321 320 319 317 318 323 328 326 325 325 327 331 332 332 334 334 334 335 335 334 333 333 332 333 334 334 336 338 338 337 338 337 336 336 335 335 335 334 335 335 335 334 333 332 332 332 332 330 329 328 327 327 325 324 324 326 329 330 330 330 329 327 326 326 324 323 321 319 318 316 314 312
318 318 317 317 317 317 319 322 323 323 323 324 325 324 322 320 320 321 324 328 329 327 327 328 330 332 333 333 334 334 334 336 335 333 332 333 333 333 334 334 336 337 336 336 336 335 334 334 334 333 333 333 333 333 334 333 332 332 331 331 331 329 328 327 326 326 325 323 324 327 330 329 328 328 327 325 324 324 322 321 319 318 316 314 313 311
320 319 317 318 320 319 319 322 322 322 323 324 323 324 324 324 324 326 328 328 328 329 329 331 332 333 334 335 334 333 334 335 335 333 332 333 334 334 334 333 334 336 335 335 335 334 334 333 333 332 333 333 332 332 332 332 331 331 331 330 329 328 327 327 326 325 324 323 325 327 328 327 326 326 325 323 322 321 320 319 317 315 314 313 312 310
321 320 319 320 322 321 320 322 323 323 323 325 325 325 326 327 327 328 328 328 328 329 330 331 333 333 333 333 332 332 334 334 334 333 332 332 333 334 333 333 334 335 335 334 334 334 333 333 332 333 333 333 333 332 331 331 331 330 329 329 328 328 327 326 325 324 323 323 325 326 326 325 324 324 322 321 321 320 318 317 315 314 313 313 311 310
321 321 321 322 322 322 322 322 322 321 321 323 326 327 327 327 327 328 328 329 329 330 330 331 332 333 332 333 333 333 333 333 333 332 331 331 332 333 333 333 334 334 334 333 333 333 333 333 333 333 333 333 332 332 331 331 330 329 329 328 327 327 326 324 324 323 323 323 324 326 325 323 322 322 321 320 319 318 318 316 315 314 313 312 311 310
320 320 320 322 322 321 321 322 321 321 322 323 325 326 326 325 326 328 328 328 328 330 330 330 332 332 332 333 334 333 331 332 333 332 331 330 332 333 334 333 333 333 333 333 333 332 333 333 333 333 332 331 331 332 331 330 330 329 329 327 327 326 325 324 323 323 323 323 323 324 323 322 321 321 320 319 318 317 317 316 314 313 313 312 311 310
320 320 321 321 321 321 321 321 321 322 322 322 323 325 325 324 325 326 327 326 327 329 329 329 331 331 331 333 334 332 331 333 335 334 333 333 333 334 334 333 333 332 332 332 332 332 333 333 332 332 331 330 330 331 331 330 329 329 328 327 326 325 325 324 323 323 323 323 322 321 321 321 320 319 319 317 317 316 315 314 314 313 313 312 311 310
320 320 321 321 321 321 321 321 321 322 321 322 323 324 324 324 324 325 325 326 326 327 328 328 329 330 331 333 333 333 333 335 335 335 335 334 334 334 333 332 332 331 331 331 331 331 332 332 331 331 330 329 329 330 330 329 329 328 328 327 325 325 324 323 322 322 322 322 321 320 320 320 319 319 317 316 316 315 314 314 313 313 313 312 310 309
320 320 321 321 320 321 321 321 322 322 322 323 324 324 324 325 325 324 325 325 325 326 326 327 329 330 331 332 332 333 334 334 334 334 334 333 333 333 332 332 332 331 330 330 330 331 330 330 329 329 328 328 329 330 329 329 328 328 327 326 325 324 323 323 322 322 321 321 321 320 320 319 318 318 317 315 315 314 314 314 313 312 312 311 310 309
320 321 321 319 318 320 321 321 321 321 322 322 323 323 324 326 326 325 326 325 325 324 324 326 328 329 330 331 331 332 333 333 333 333 333 333 333 332 332 331 331 331 330 329 329 330 330 329 328 327 327 328 329 329 328 327 327 326 326 325 325 324 323 322 322 321 320 320 320 319 319 318 317 316 316 315 314 314 314 313 313 312 311 311 310 309
320 320 320 319 319 320 321 321 321 321 321 321 321 322 323 324 325 327 326 325 324 324 324 324 326 328 328 329 330 331 332 332 333 333 333 332 332 331 331 331 330 331 330 330 329 329 329 329 328 328 329 329 328 327 327 326 325 324 324 324 324 324 324 323 321 320 319 319 319 318 318 317 316 315 314 314 314 313 313 312 312 311 310 310 310 309
Wind_Speed
16 11 11 13 15 20 23 24 25 23 22 20 17 17 18 16 15 17 18 20 20 17 18 23 22 20 20 21 22 25 26 24 25 26 21 24 26 25 26 27 25 21 27 32 29 27 26 26 25 25 27 29 31 29 30 32 30 28 26 26 27 25 27 28 27 29 25 22 22 20 19 19 20 19 17 17 16 17 18 17 16 13 13 13 12 13
15 12 14 19 22 23 23 24 25 25 24 22 18 17 17 16 15 19 20 19 20 17 16 21 21 21 22 19 19 24 25 20 19 21 20 22 25 25 25 26 28 23 24 33 31 28 27 26 27 27 27 29 32 32 32 32 29 28 27 26 28 27 27 29 28 27 24 22 22 21 20 18 19 20 18 18 18 18 18 16 15 13 12 11 10 11
12 14 19 23 22 22 23 23 26 26 25 21 17 14 14 15 15 18 22 21 19 15 13 18 18 18 21 20 19 21 21 22 24 24 23 23 23 25 27 26 29 26 24 34 32 30 28 27 29 29 27 29 33 32 31 33 30 29 28 27 29 28 28 28 25 25 23 21 20 19 19 17 17 19 18 17 16 16 15 14 13 12 13 12 11 11
10 14 22 24 22 22 24 24 26 24 20 18 16 13 13 16 15 13 18 22 19 15 13 15 15 13 17 19 19 21 24 25 30 29 24 25 24 24 27 26 26 27 27 34 33 31 30 29 30 29 28 30 33 31 31 33 32 30 30 30 29 29 28 26 24 24 23 21 19 17 17 16 16 17 18 15 14 15 14 13 14 15 17 15 13 13
14 18 22 23 23 25 24 24 25 19 15 19 20 17 14 17 20 14 15 20 18 17 17 15 11 10 14 19 18 19 23 24 27 29 23 24 26 23 25 25 26 28 30 34 32 31 30 30 31 29 29 31 33 32 32 34 34 32 31 30 29 27 25 24 24 24 22 22 22 19 18 18 16 16 17 15 14 15 15 15 17 17 16 13 12 12
17 23 25 23 23 26 24 22 23 19 14 17 22 24 21 19 22 19 18 18 13 14 17 15 10 9 13 19 18 16 18 20 21 23 23 24 26 25 24 24 27 27 31 35 33 31 31 30 30 28 29 31 34 34 34 34 34 32 30 28 26 25 24 23 25 23 22 24 26 24 22 21 20 17 18 18 17 17 17 17 17 16 14 12 13 12
13 23 26 22 22 26 24 20 23 23 15 13 19 25 26 23 21 22 22 18 11 11 15 16 11 8 10 16 18 16 18 20 19 19 23 25 27 27 27 25 27 28 29 35 33 31 31 30 30 29 29 32 36 35 35 35 33 31 29 27 26 26 25 25 25 23 23 24 25 25 24 23 22 20 18 19 19 19 19 18 17 16 14 14 13 11
13 21 24 24 23 22 20 17 21 25 17 12 17 23 27 26 23 21 21 17 12 10 11 16 14 9 9 12 16 18 18 20 22 19 19 23 26 29 29 28 28 30 30 35 35 32 33 32 31 30 30 32 35 36 36 36 34 33 31 28 27 26 25 25 25 24 25 25 23 24 23 21 22 19 16 18 20 20 20 19 17 16 15 14 13 11
15 19 22 24 21 16 16 18 22 26 19 15 19 22 25 25 23 20 17 15 13 11 10 17 17 10 9 10 13 18 19 19 22 22 20 21 25 29 30 30 30 31 31 35 37 33 33 33 31 30 31 30 33 35 36 36 35 35 32 28 27 26 25 26 26 25 26 24 22 23 22 20 20 18 16 19 21 21 20 20 17 15 16 15 14 13
13 19 23 21 17 14 17 20 24 25 19 18 21 21 23 22 20 18 15 14 14 12 12 17 18 11 8 10 12 14 17 18 17 18 19 21 25 29 31 30 29 30 31 33 38 36 34 34 31 30 30 29 31 33 35 35 33 33 32 29 28 26 25 26 26 27 27 24 22 24 23 22 21 19 19 21 20 20 20 19 17 15 16 16 14 13
16 23 23 17 13 13 18 20 23 25 22 21 21 19 19 18 16 14 12 12 11 11 14 19 21 15 9 9 12 12 13 16 15 14 16 20 25 27 31 31 29 30 30 31 39 39 36 36 33 32 31 29 30 32 33 34 32 32 32 30 29 26 25 26 26 27 27 24 22 24 24 24 23 22 21 21 20 20 20 19 18 16 17 17 15 13
17 20 17 14 16 17 18 19 20 24 24 20 16 14 14 13 13 12 10 10 10 11 15 20 22 19 12 8 11 14 15 17 17 16 16 19 23 25 29 32 31 31 30 31 39 39 38 38 36 35 32 30 31 31 31 32 32 32 32 31 30 27 26 25 24 26 26 24 22 22 23 23 23 23 21 21 21 21 21 20 19 17 17 17 15 15
13 15 17 16 18 19 17 15 16 19 20 18 15 14 14 12 11 10 9 10 11 11 14 19 20 17 12 10 12 15 19 19 17 17 19 19 23 26 28 30 32 32 30 33 41 40 39 40 39 38 35 33 33 32 31 32 31 32 32 31 31 29 27 25 24 25 25 25 23 21 23 23 22 21 21 21 21 21 21 21 19 18 18 16 15 16
8 13 18 16 15 18 18 12 12 13 16 18 15 14 13 11 10 10 11 11 11 12 15 19 18 13 9 11 14 15 16 18 16 18 22 23 25 27 28 29 31 32 31 33 40 42 40 40 39 39 38 36 34 32 31 32 32 32 32 30 31 30 28 25 24 25 24 24 23 21 22 23 21 21 22 22 22 21 21 20 19 18 18 16 15 16
9 8 13 15 11 13 16 13 11 13 14 16 15 14 13 11 10 9 10 11 10 11 15 17 14 10 9 8 13 16 15 12 18 21 23 26 28 28 28 29 30 32 32 31 38 44 42 41 40 39 38 37 34 31 30 32 32 33 32 31 31 30 28 26 24 25 24 22 21 21 22 22 21 22 22 22 21 20 20 21 19 18 18 17 15 16
12 8 8 14 11 12 16 15 14 14 13 14 15 14 13 13 11 7 8 9 8 9 11 11 8 7 8 5 10 16 14 8 14 20 19 22 29 28 27 29 29 32 33 30 38 45 43 41 41 39 38 36 33 31 30 31 33 33 33 32 31 29 27 25 24 24 24 21 20 20 22 22 21 22 22 22 21 19 20 21 20 19 19 18 17 18
10 8 8 13 12 14 17 15 15 13 10 11 13 13 13 16 13 8 7 8 7 8 8 9 8 7 8 6 8 15 13 7 8 15 13 16 27 27 25 28 29 31 31 28 38 44 41 40 39 38 38 35 33 31 30 32 33 33 32 32 32 30 28 25 24 23 23 22 21 20 21 22 21 22 22 22 22 21 21 20 19 18 18 18 19 19
6 6 9 15 16 16 18 19 18 18 13 11 11 13 14 15 13 8 7 7 7 9 8 10 12 9 8 8 9 13 15 9 7 12 12 13 22 23 22 26 28 31 30 28 38 42 39 40 38 37 36 33 32 31 31 33 33 31 30 31 31 30 29 28 26 25 25 24 22 21 21 22 22 22 22 22 23 23 22 20 18 17 16 17 18 17
6 4 7 16 17 15 16 17 15 17 20 15 12 14 13 11 10 8 6 7 8 8 7 10 14 11 9 8 10 12 13 12 10 12 14 13 15 17 21 25 27 29 29 30 40 41 39 39 37 36 35 31 30 29 30 33 33 30 29 30 30 29 29 29 28 27 26 25 24 23 22 22 22 23 23 23 23 22 21 19 17 16 15 16 16 14
5 4 4 13 18 14 11 12 9 11 17 16 13 13 11 8 9 9 6 7 9 7 7 10 12 9 8 7 14 14 12 13 14 12 12 12 13 18 22 23 26 29 27 32 43 43 40 39 36 35 33 29 29 30 29 32 33 31 29 29 29 28 29 29 28 28 27 26 25 24 23 22 23 24 25 25 24 21 20 18 17 16 15 15 15 14
3 3 3 10 15 13 8 9 11 11 11 11 10 11 11 9 8 9 8 8 9 7 7 8 8 7 7 7 14 19 14 13 14 11 9 10 15 21 24 23 26 27 25 33 43 41 37 35 33 32 30 28 30 31 30 32 32 30 29 29 30 29 28 28 29 28 27 27 26 25 25 24 24 25 25 25 25 22 20 18 16 16 16 15 15 15
2 2 4 7 11 11 11 12 14 15 12 9 8 11 13 10 9 9 8 8 9 8 7 6 6 7 8 8 10 14 13 12 15 14 10 11 17 21 24 26 26 25 26 35 40 38 36 34 32 32 31 31 31 30 31 32 31 30 30 31 31 29 26 26 28 29 27 26 25 24 25 25 24 25 25 25 25 23 21 19 17 16 16 16 16 17
4 0 4 6 9 11 14 15 16 17 15 13 11 12 12 10 10 8 7 7 8 9 9 7 6 4 8 12 10 9 13 14 17 17 12 13 18 20 24 28 26 26 30 35 37 38 37 35 33 33 33 33 33 31 31 33 32 32 32 32 31 29 25 23 27 28 26 27 26 24 25 25 24 25 26 26 26 25 23 20 18 17 16 17 19 19
8 3 4 6 7 11 14 15 16 17 16 13 12 12 12 12 12 9 7 6 6 9 9 7 5 1 2 6 7 9 15 15 16 19 16 14 18 19 23 26 25 29 32 33 35 37 37 35 34 34 34 33 32 31 32 34 34 33 33 33 31 28 25 24 26 26 24 25 25 24 25 25 24 25 26 27 29 28 24 21 19 18 18 20 21 21
5 3 3 5 6 9 11 12 12 14 13 10 9 13 15 16 14 9 7 6 5 9 12 8 6 4 3 2 1 7 16 15 14 19 19 17 18 20 22 23 25 30 32 32 34 36 37 36 35 34 33 32 32 33 34 33 32 33 33 33 30 27 26 27 28 26 22 22 24 24 25 24 23 25 26 28 29 27 22 20 20 20 21 23 22 21
3 0 1 5 6 8 9 10 10 10 9 8 11 15 18 18 16 9 6 5 4 9 12 7 5 7 5 1 1 5 8 10 13 18 19 19 21 23 24 24 26 28 30 33 34 35 35 34 33 32 32 33 33 34 33 31 30 32 33 32 30 28 27 28 29 26 23 25 27 27 26 25 24 25 26 27 27 24 22 21 21 22 24 25 23 22
1 1 5 9 8 8 11 13 13 12 11 11 14 18 18 16 17 12 6 4 5 7 3 5 8 9 7 5 6 6 3 2 6 12 16 18 21 25 27 27 28 27 28 32 34 34 33 32 32 32 33 34 33 31 32 31 31 33 33 32 30 27 26 27 28 27 25 27 29 28 27 26 26 26 27 26 24 22 22 22 21 23 26 26 24 22
1 2 9 13 14 12 12 17 18 17 17 17 17 18 17 16 18 14 6 4 8 7 1 7 11 9 6 4 5 6 5 3 3 4 8 14 17 21 26 28 28 27 27 30 32 33 33 33 32 33 34 33 30 30 32 32 32 33 33 31 30 29 26 24 27 28 27 27 29 28 28 28 27 27 27 25 23 22 22 21 21 23 26 27 25 21
1 4 9 12 14 12 11 16 21 19 18 18 17 17 16 16 17 13 9 8 8 4 3 9 11 9 6 4 4 4 3 4 7 6 10 14 16 19 23 25 25 25 26 29 30 32 33 33 33 34 34 31 29 31 33 33 33 33 33 32 30 29 27 24 26 29 28 27 28 28 29 29 28 28 27 25 24 23 22 21 22 24 27 28 25 20
1 4 7 11 11 9 13 15 21 21 18 17 16 16 16 16 16 15 12 6 3 6 8 12 13 9 5 5 6 6 7 2 7 11 14 15 15 18 20 22 23 25 26 28 30 30 31 32 34 33 31 30 32 33 34 35 35 34 34 33 29 28 27 25 26 29 29 26 25 28 30 30 29 28 27 25 24 23 21 22 24 26 28 28 24 21
2 3 3 7 7 8 13 15 20 22 19 17 17 16 16 14 15 16 12 3 6 8 7 9 10 7 4 6 5 6 5 2 6 11 14 16 17 19 21 22 24 26 28 29 30 30 30 32 33 31 29 31 34 35 35 35 35 34 35 34 29 27 27 26 27 29 30 27 25 26 28 28 28 26 25 24 24 22 21 23 27 29 29 27 24 20
2 3 4 5 5 8 11 15 20 21 19 18 17 16 16 13 12 13 10 4 5 6 4 5 5 5 5 6 5 7 5 5 9 11 13 15 17 19 21 23 25 27 29 30 30 30 30 33 32 30 30 33 35 36 37 37 37 37 36 33 29 28 28 27 28 28 28 27 27 27 27 27 27 26 25 25 24 22 23 27 29 30 28 26 23 21
2 2 4 3 4 7 11 15 19 19 15 12 12 14 16 14 12 12 11 8 4 5 3 3 4 4 4 7 6 4 5 5 7 12 13 15 18 19 20 22 24 27 29 29 29 29 30 32 31 30 32 35 36 37 38 39 40 38 35 31 29 29 28 26 26 27 28 27 27 28 28 28 28 27 26 26 24 24 26 28 30 29 27 26 24 22
2 3 3 2 3 6 8 10 12 13 11 8 9 13 16 16 15 13 12 10 7 4 2 1 5 7 6 6 5 6 2 7 7 10 14 15 18 19 21 23 23 26 28 27 29 30 31 31 29 30 33 36 37 38 37 38 38 36 32 30 29 29 27 26 27 28 29 28 27 28 27 27 28 27 26 25 25 26 28 29 30 29 28 27 25 24
4 3 3 1 3 5 4 4 6 8 8 6 9 14 15 15 15 13 13 12 10 8 5 1 1 4 9 8 4 7 7 4 8 4 10 14 17 19 21 23 25 26 27 27 29 32 32 31 31 33 36 37 38 39 38 37 38 36 32 29 28 29 29 29 30 30 29 28 28 27 27 27 27 26 26 25 26 29 31 31 31 30 29 29 26 24
3 1 1 3 4 4 3 4 5 6 6 5 7 12 13 12 12 11 12 12 11 10 8 6 5 1 9 9 5 7 8 2 4 2 4 8 15 18 20 23 25 27 28 28 30 32 30 30 33 36 37 37 38 38 37 37 38 36 31 27 28 29 27 27 29 30 28 27 27 27 27 27 27 26 26 26 29 32 32 32 31 30 29 28 26 24
4 1 1 4 5 5 6 5 4 6 8 6 8 11 10 10 11 9 6 7 10 12 11 9 8 3 9 10 8 8 8 5 2 1 1 2 6 11 17 23 25 26 28 29 30 29 28 30 35 38 37 36 36 36 36 37 36 34 31 27 26 27 24 23 27 29 27 25 24 25 26 26 27 27 27 28 32 33 32 32 31 29 28 26 24 22
6 4 2 3 5 4 5 6 5 6 7 5 7 10 9 10 12 9 5 5 9 13 10 5 3 1 7 8 8 8 6 4 3 3 2 3 4 5 11 21 27 27 27 29 30 28 28 32 36 37 36 34 34 35 36 36 35 33 31 26 25 27 24 22 24 25 24 24 24 24 26 27 27 28 29 30 32 32 32 31 29 27 25 24 22 21
8 6 4 4 6 5 2 6 5 5 4 2 4 2 5 6 9 10 6 5 5 5 3 3 1 1 6 9 7 6 4 3 3 3 5 8 10 12 15 18 23 27 27 28 30 28 29 33 35 35 36 33 32 33 34 34 33 32 31 27 26 27 25 22 22 22 22 24 25 27 28 28 29 29 29 30 31 31 31 29 27 25 24 22 20 20
7 5 4 6 7 5 3 3 2 1 1 5 10 6 1 4 5 8 9 3 3 4 4 1 2 4 9 9 7 4 1 1 3 5 8 10 14 21 22 16 19 28 29 26 28 29 30 33 33 33 33 31 30 31 32 31 31 31 30 29 27 26 24 22 22 21 21 22 24 27 28 29 29 30 30 30 30 30 30 29 26 25 22 19 18 18
5 3 4 6 6 4 3 3 2 1 2 5 9 9 5 5 3 5 7 2 4 3 2 1 3 9 8 6 7 4 1 3 10 11 13 14 16 22 24 19 20 27 29 27 30 31 32 34 33 31 29 27 27 29 30 31 31 30 29 29 28 26 23 21 20 20 19 20 22 25 27 27 29 31 31 31 31 30 29 27 25 24 21 19 18 18
2 2 5 6 5 2 3 4 3 1 1 5 7 8 5 4 3 2 2 3 5 2 3 7 8 8 5 5 8 7 7 12 16 14 15 18 20 22 24 23 23 26 27 28 31 33 32 30 30 30 28 26 26 28 29 30 30 30 29 29 28 25 22 20 19 18 19 20 21 25 28 30 30 30 29 29 29 28 27 25 23 22 20 19 20 20
1 1 3 1 2 2 4 4 2 3 1 6 7 3 2 2 1 1 3 6 6 5 8 10 9 6 5 6 6 8 12 17 17 16 17 19 22 24 25 26 26 26 27 28 29 29 28 26 27 30 28 26 27 28 28 28 29 29 28 26 25 23 21 21 20 19 19 21 21 25 30 32 31 29 29 29 27 25 24 22 21 21 20 21 21 21
3 2 2 1 2 2 3 3 1 1 6 11 5 3 6 5 3 3 4 7 8 7 7 8 7 6 6 5 4 7 16 20 19 18 19 19 21 23 25 26 26 26 26 26 25 25 25 26 30 30 28 27 28 27 26 27 28 27 25 24 24 23 21 20 20 19 19 19 22 26 31 32 30 30 30 28 25 23 22 22 21 22 22 22 23 23
4 3 3 3 3 1 3 4 4 3 10 10 3 10 11 10 7 6 7 8 7 5 4 5 7 9 8 7 7 9 16 22 22 20 20 21 21 22 24 24 24 24 24 25 24 24 24 27 30 30 28 27 27 26 26 27 27 26 25 24 24 24 23 21 20 19 19 19 23 28 32 31 31 30 28 25 24 24 23 22 23 24 24 24 24 24
4 4 4 2 1 3 6 8 6 4 9 9 6 12 13 12 8 8 9 8 6 5 4 4 8 11 9 9 11 13 15 19 22 22 22 23 21 21 21 21 21 21 21 23 24 23 23 25 27 27 26 24 25 27 26 25 26 25 25 25 26 25 24 22 20 20 20 21 25 31 33 33 32 29 26 25 24 23 21 22 24 25 25 27 26 25
3 2 2 2 2 1 3 7 6 6 9 13 11 8 13 14 12 12 12 8 6 7 7 7 8 10 10 10 13 14 14 17 20 21 21 22 22 20 20 20 21 20 19 22 23 21 22 24 25 25 24 22 24 27 25 23 25 25 24 27 27 25 23 22 21 21 20 22 28 33 34 34 33 30 26 25 24 21 20 21 24 26 28 29 27 27
2 3 3 4 5 3 3 4 6 6 9 12 13 12 14 15 14 14 14 11 8 7 9 10 9 9 12 13 13 14 15 17 18 18 18 20 21 20 19 19 20 19 19 21 21 20 21 23 24 25 25 23 25 26 24 24 25 25 24 27 27 24 23 23 23 22 20 23 30 34 34 33 32 30 28 25 23 22 22 24 27 28 29 29 26 26
5 4 3 3 5 4 5 6 7 5 9 13 14 13 13 13 13 14 15 15 13 11 11 13 11 9 13 14 12 12 14 15 16 16 17 18 18 17 16 16 16 18 19 20 20 18 18 18 20 23 24 24 25 26 24 24 25 25 26 27 25 23 22 22 22 22 22 25 31 34 33 32 29 27 26 24 23 24 26 28 27 25 26 28 26 23
5 3 4 3 3 3 5 8 8 6 5 9 13 13 13 14 14 14 16 19 19 16 14 14 13 12 12 13 13 14 14 14 14 14 15 15 14 15 16 15 13 15 17 19 20 18 15 15 17 19 21 23 26 26 24 23 23 23 24 25 23 21 21 21 22 24 24 26 29 30 29 28 26 24 24 26 27 27 28 29 27 22 22 25 25 23
5 4 3 2 4 5 7 9 12 9 6 8 13 13 11 13 15 15 18 19 19 18 16 14 14 15 14 13 14 15 15 14 13 13 14 14 13 14 14 13 12 13 14 16 17 16 14 14 15 16 18 23 27 26 22 22 23 22 21 21 20 20 21 22 24 26 26 27 27 27 27 26 25 24 25 27 28 28 26 26 26 23 21 22 23 23
Wind_Direction
214 221 222 218 221 219 216 218 221 224 231 231 224 221 218 218 223 216 215 219 217 215 211 216 227 228 226 222 225 237 234 225 230 234 219 203 209 213 213 213 216 202 172 172 177 175 175 174 178 186 185 182 182 184 187 189 192 190 190 185 181 184 181 179 181 179 180 186 183 181 189 195 194 194 194 192 193 200 205 210 211 204 202 204 212 221
220 225 227 224 225 226 223 221 222 224 229 234 230 224 218 216 221 220 220 217 218 229 218 208 219 227 230 227 216 224 235 232 226 231 224 207 200 206 218 210 206 211 181 167 171 171 173 175 177 184 184 181 180 184 187 186 188 188 189 186 183 186 185 186 185 178 180 186 185 185 187 193 196 193 193 197 199 200 205 207 204 204 205 205 214 225
232 230 230 228 228 230 231 225 220 221 224 232 235 229 223 215 216 222 224 217 213 229 225 206 212 224 229 233 223 215 225 233 230 230 222 210 200 199 216 214 201 205 177 161 167 167 170 175 177 183 186 182 182 185 184 185 189 190 190 187 185 189 189 189 185 177 181 186 187 188 188 192 195 193 196 203 204 201 202 199 196 204 204 201 209 217
237 234 228 229 231 229 231 228 218 217 220 226 231 236 233 218 213 215 218 216 213 222 222 210 214 222 224 232 232 218 218 227 229 233 223 207 206 202 211 214 200 194 168 156 163 164 168 174 175 183 183 179 183 184 183 186 191 193 192 189 188 191 190 186 182 179 182 185 185 187 191 194 193 196 198 200 200 197 198 195 195 206 208 205 209 216
238 241 232 225 229 229 228 227 218 212 215 221 224 233 233 219 216 212 212 212 211 221 217 204 216 227 220 224 228 220 217 221 223 230 225 203 203 210 214 211 203 192 165 155 163 163 168 174 175 183 181 179 183 184 186 190 192 193 191 189 190 191 187 182 182 183 181 181 183 186 193 193 187 194 196 187 191 197 199 199 202 211 211 210 217 224
238 241 238 225 222 227 229 225 218 210 209 217 221 228 233 228 219 210 210 210 202 220 211 191 211 232 220 221 221 215 214 216 217 222 223 204 194 205 218 211 203 194 166 160 168 165 169 174 174 182 181 180 185 185 188 193 192 192 192 189 189 187 183 182 185 184 179 181 185 185 191 192 182 187 193 186 191 201 203 203 207 211 206 208 220 224
243 237 239 235 221 221 228 227 219 212 209 216 213 221 233 240 231 212 208 214 207 210 196 183 210 235 219 220 217 212 210 211 214 217 219 211 195 198 215 211 200 195 170 162 169 165 169 176 175 181 182 181 187 187 189 194 193 194 194 188 187 187 184 185 187 183 181 186 190 187 189 193 185 186 194 192 195 203 206 207 208 209 204 209 219 215
244 237 235 238 227 216 223 225 218 212 210 216 207 213 227 236 238 219 208 220 217 200 196 194 205 228 232 220 209 209 212 210 212 215 215 213 201 194 207 211 199 196 181 167 169 167 171 179 179 181 183 183 188 189 190 194 194 194 194 188 188 189 186 187 186 183 186 188 189 186 185 192 190 187 192 195 199 204 207 209 208 205 204 210 211 198
241 239 231 232 230 215 216 223 216 211 211 212 207 210 219 227 238 228 211 221 214 196 211 209 202 213 235 227 209 205 209 213 211 209 211 214 206 193 198 208 198 195 192 176 175 180 180 182 183 182 182 182 188 191 191 194 193 193 195 191 188 188 187 188 184 183 190 191 188 183 182 190 189 184 193 200 203 204 207 208 206 204 203 205 203 193
242 244 237 230 232 218 212 221 217 211 211 210 210 212 211 217 236 237 221 218 214 208 214 212 209 215 226 225 220 207 205 212 212 208 205 211 213 197 190 202 198 194 197 182 178 189 188 183 184 183 180 180 187 192 192 192 192 192 194 191 187 188 188 187 184 184 191 193 189 185 184 188 185 184 196 204 204 204 206 206 202 202 203 201 198 194
254 258 253 234 237 231 213 217 221 214 209 207 212 212 203 208 228 237 228 214 217 226 213 208 214 219 220 219 220 218 208 203 206 211 202 201 213 199 183 195 200 196 201 184 173 182 184 179 181 180 178 179 184 188 189 190 191 191 191 189 187 190 190 188 186 186 191 194 191 189 186 186 185 188 198 204 204 204 205 206 204 204 202 200 198 197
256 263 264 234 234 244 223 213 218 215 207 206 213 207 193 200 216 222 223 215 221 230 210 206 218 221 217 220 218 218 216 205 198 206 205 194 204 199 181 189 198 199 202 182 166 171 174 173 176 176 175 179 182 185 187 187 188 190 188 186 188 191 190 189 188 187 190 192 191 190 185 184 188 192 196 202 204 205 208 207 206 204 197 194 196 197
250 254 257 233 221 237 235 210 208 213 205 204 208 202 191 190 200 205 208 211 219 227 211 205 219 225 216 218 222 212 213 215 201 198 206 195 195 198 186 186 193 198 200 181 167 170 171 170 173 174 175 178 182 186 187 184 184 187 187 186 188 190 189 189 187 187 188 188 189 188 183 185 190 191 194 201 204 205 208 207 202 197 194 192 194 198
240 243 248 233 207 222 236 215 199 204 198 201 203 195 190 186 187 191 197 207 212 217 213 205 214 233 226 211 220 221 217 213 196 192 202 194 190 193 188 189 192 195 199 187 173 172 172 170 171 174 177 180 182 184 184 184 183 184 188 189 190 190 189 188 186 187 188 185 186 185 182 185 188 190 197 205 206 202 202 203 196 190 194 197 198 201
226 231 235 225 197 202 226 228 211 199 195 203 204 194 195 193 188 189 196 204 205 205 211 209 209 226 230 196 196 224 244 216 181 187 198 187 182 186 186 192 193 191 199 192 172 167 168 170 170 172 177 180 181 182 183 183 182 184 189 190 189 187 185 185 187 188 187 186 184 182 183 184 187 195 202 205 203 197 195 194 190 190 197 203 203 202
229 231 218 211 196 189 213 230 223 207 196 201 202 198 196 193 190 198 209 203 200 203 209 216 217 214 224 211 183 208 243 243 172 178 190 176 172 179 186 195 194 189 198 192 169 164 165 169 171 173 176 178 178 181 183 182 182 186 190 189 189 187 182 183 186 185 185 188 185 182 184 184 189 198 200 198 193 186 187 188 188 194 202 207 206 199
227 232 211 203 205 204 208 221 228 225 204 193 204 202 194 198 196 194 209 202 195 207 205 211 221 208 210 231 218 201 207 230 172 167 182 169 165 175 187 194 193 190 195 184 165 164 166 168 172 175 175 177 178 180 184 183 183 187 190 188 187 184 182 183 185 182 185 188 184 182 187 187 191 198 194 191 187 183 187 191 193 200 205 206 202 195
246 243 210 200 205 207 207 215 229 243 232 197 199 202 195 204 204 188 204 201 191 208 206 201 207 207 203 203 215 204 186 180 172 173 186 169 161 172 186 191 191 189 189 170 155 161 167 169 172 174 175 177 179 182 186 183 182 188 190 188 183 178 180 185 184 183 187 190 186 185 189 189 191 195 192 188 187 186 188 190 194 198 199 199 196 195
288 272 209 201 201 196 205 216 223 243 242 221 200 198 195 204 199 184 200 196 192 207 203 199 201 205 214 183 171 198 188 163 169 186 186 175 165 172 183 189 187 184 182 164 151 157 164 167 169 171 173 177 178 181 184 179 181 189 189 186 182 177 181 187 185 184 188 192 190 187 187 188 189 192 192 188 186 186 186 188 193 193 190 192 194 197
280 286 227 207 200 183 193 216 212 227 238 232 216 201 199 213 199 187 201 197 196 205 194 199 202 198 216 187 163 186 191 165 175 193 185 179 175 171 179 187 181 179 179 164 157 159 163 164 167 170 172 174 176 180 179 176 181 190 188 184 182 180 185 188 183 183 187 190 191 188 186 188 189 191 191 189 188 187 186 189 193 188 186 191 194 197
249 282 264 213 197 185 191 213 215 212 215 229 231 204 197 217 207 193 207 205 199 206 198 196 199 192 208 206 179 181 184 174 180 192 190 183 176 172 177 181 176 180 176 159 158 162 163 164 167 169 171 172 176 178 176 175 183 190 189 185 184 184 186 184 180 183 187 188 189 188 187 190 192 191 190 189 189 189 188 190 189 185 189 196 199 199
230 276 263 218 190 193 198 201 219 223 207 210 225 203 196 208 208 197 199 203 200 202 203 199 202 200 201 218 206 179 177 186 184 187 198 187 178 173 171 174 177 178 163 149 152 159 160 163 167 168 170 172 175 176 174 176 183 188 188 184 184 185 183 180 181 185 187 186 187 188 189 191 193 193 191 187 185 187 191 192 188 188 195 195 191 191
185 66 281 235 199 199 198 196 217 228 213 207 213 206 202 206 211 210 193 193 201 197 200 204 205 205 186 197 207 169 170 192 188 188 196 184 180 173 164 171 174 164 151 144 148 156 160 163 166 168 169 171 174 174 174 178 182 186 187 184 183 182 179 181 184 186 187 187 188 188 189 192 194 192 190 187 187 190 193 191 187 192 197 188 183 188
176 174 261 242 206 199 199 194 209 224 219 213 213 214 219 212 209 214 192 185 215 205 194 193 195 206 126 180 195 158 164 188 192 189 188 177 180 173 159 161 157 148 147 146 147 154 161 163 164 167 168 171 173 174 176 181 182 182 184 184 182 179 177 181 183 183 187 187 184 185 187 193 195 190 187 190 193 194 194 188 186 193 192 184 185 191
198 194 219 224 197 193 196 189 201 219 215 209 219 226 229 216 202 210 200 190 226 206 187 187 194 175 76 25 284 147 162 184 190 185 182 173 175 172 161 157 151 145 147 151 153 156 161 164 165 166 168 171 173 174 177 182 180 178 182 183 180 176 176 180 181 180 181 176 175 181 186 191 193 186 186 193 196 195 192 189 190 190 185 185 190 190
245 43 219 224 196 182 187 187 194 205 204 212 224 226 230 215 195 201 212 189 213 208 192 186 170 145 124 87 62 135 167 190 178 174 179 174 170 169 163 160 156 149 148 155 162 165 166 168 167 166 169 172 173 174 178 179 177 177 181 180 178 176 177 180 179 176 176 173 174 180 183 188 189 182 184 193 195 192 192 194 194 187 183 186 190 188
231 88 254 251 231 199 188 187 190 191 195 210 215 218 229 218 193 199 226 199 210 230 198 108 115 133 145 168 174 169 185 189 152 168 177 171 165 164 160 154 152 152 151 153 160 167 169 169 167 167 171 172 172 175 176 176 177 180 180 178 179 177 176 180 178 174 176 178 179 182 183 185 185 182 187 193 191 191 195 197 194 187 183 186 190 190
180 227 250 253 248 230 199 188 192 195 197 203 206 211 220 210 193 199 230 211 208 234 213 113 128 136 136 147 172 178 178 170 169 170 150 136 133 141 145 144 147 153 152 150 155 162 165 166 167 169 170 169 170 174 173 175 179 179 177 177 179 175 174 178 176 173 179 181 181 184 186 186 186 186 191 193 192 197 200 196 193 188 184 186 188 189
94 264 257 250 245 247 232 204 195 199 204 203 200 199 203 203 195 201 227 222 208 217 108 108 109 108 105 79 37 356 313 206 180 143 114 114 118 127 136 141 148 155 153 152 158 162 164 166 167 167 168 167 169 172 173 176 178 175 174 177 175 172 173 176 173 174 179 180 180 184 188 190 192 193 195 196 198 203 201 195 193 189 186 185 185 183
41 258 260 254 241 250 261 228 195 195 205 203 197 196 202 207 199 199 216 219 127 96 99 101 97 98 91 53 24 343 326 285 161 143 135 141 146 146 148 152 159 164 161 160 164 164 165 167 165 164 167 169 172 173 173 176 175 172 174 176 171 170 173 173 170 174 178 177 178 184 189 194 195 194 195 196 198 202 199 193 191 189 186 183 181 177
262 260 301 282 245 230 251 233 198 194 200 199 197 199 204 210 204 198 203 187 88 98 116 122 117 115 96 62 27 333 308 198 159 151 149 155 161 160 160 164 169 171 168 166 166 166 167 166 163 164 166 169 172 173 172 173 173 172 174 173 168 168 171 171 172 177 180 180 182 185 191 196 196 194 194 194 197 200 197 191 188 187 185 183 181 174
256 296 330 302 251 226 236 226 201 193 197 199 197 195 198 207 212 202 196 181 117 118 150 165 135 114 111 108 63 350 309 206 170 160 156 160 165 166 165 168 171 170 167 167 168 167 167 166 164 165 167 169 171 171 170 171 170 170 171 168 167 169 171 173 177 180 183 187 188 190 193 198 199 197 195 194 195 197 193 188 185 183 183 185 182 172
159 298 323 302 254 232 227 219 200 188 194 203 194 191 192 195 208 211 204 196 151 128 171 172 136 129 114 113 101 47 327 263 183 164 167 167 166 168 169 170 172 169 167 167 166 165 166 166 165 166 169 170 170 170 170 170 167 166 165 164 167 172 174 176 179 181 184 186 188 192 194 197 199 198 196 194 193 193 191 187 183 182 182 184 180 172
211 264 300 318 280 250 228 212 194 184 194 201 185 188 190 192 204 211 206 195 167 161 225 83 137 156 117 84 89 101 103 279 244 175 168 169 168 170 171 171 170 168 166 166 164 163 164 166 165 166 168 168 167 165 164 165 164 163 161 164 170 173 174 175 176 179 183 185 188 192 192 194 196 195 194 192 190 190 190 186 184 183 182 180 176 175
251 279 304 307 266 258 234 193 190 191 190 181 182 189 189 189 198 205 207 202 190 195 222 255 183 145 102 88 72 102 124 269 285 193 165 171 174 171 170 170 170 166 163 163 163 162 164 166 165 165 166 166 166 163 160 163 165 162 161 167 174 174 173 174 177 182 188 190 192 193 192 192 193 191 191 189 186 187 188 187 187 185 183 180 178 180
267 14 316 266 247 233 200 192 198 176 154 158 194 195 185 180 188 200 207 206 205 211 212 218 241 184 97 102 87 91 117 128 337 36 139 169 174 171 167 165 164 162 160 161 163 162 162 165 166 163 162 163 165 164 162 166 168 163 161 167 173 174 174 176 180 188 193 194 195 194 192 193 193 189 187 184 182 184 187 188 188 186 186 184 181 181
277 214 239 269 255 210 183 179 163 144 147 174 199 190 181 181 185 198 216 205 208 220 216 212 226 182 100 97 92 98 116 124 116 119 66 119 162 170 167 160 155 155 157 160 163 163 161 163 164 162 159 158 162 164 166 168 167 164 162 166 173 175 176 177 182 188 192 194 195 193 189 190 190 187 183 180 181 185 187 188 188 187 187 187 183 180
264 252 255 288 286 251 179 153 140 150 157 175 185 169 172 189 181 180 225 218 202 216 214 195 224 140 99 94 100 112 121 131 152 192 207 155 132 129 144 147 148 151 154 157 158 160 162 163 163 161 158 155 157 164 167 166 166 167 167 168 173 177 175 175 181 187 190 189 188 186 185 187 188 186 183 182 185 188 188 187 186 184 184 185 183 179
253 241 225 234 274 287 181 151 161 162 144 302 300 123 145 199 182 164 194 217 183 187 156 117 283 330 92 97 101 111 128 157 167 190 188 169 148 133 132 137 143 147 151 156 158 158 160 162 162 160 159 157 157 162 166 166 167 170 169 167 171 176 176 176 180 184 184 183 183 183 184 187 188 188 188 188 189 190 188 187 185 182 181 182 182 179
259 250 245 247 262 266 205 157 153 120 46 322 320 341 102 213 198 170 180 185 83 81 84 180 258 65 89 105 109 107 275 256 142 156 168 161 147 143 146 147 147 149 152 157 161 160 157 158 158 157 158 159 159 162 168 171 171 170 170 169 173 177 177 180 184 184 179 180 186 188 187 189 190 190 192 192 189 187 187 187 184 183 182 181 179 179
266 268 254 248 251 232 160 126 111 26 336 321 319 311 250 211 220 195 178 111 36 61 106 167 84 83 94 120 118 114 327 82 110 130 146 148 143 143 147 148 148 151 152 154 157 157 153 152 152 151 152 156 161 166 172 173 170 169 171 174 177 177 175 178 185 185 178 177 185 189 187 187 191 192 192 189 186 185 186 187 186 187 185 180 177 179
251 266 248 238 248 240 120 106 105 121 281 277 283 289 259 193 186 208 143 41 349 331 97 90 87 90 99 102 105 119 115 102 112 126 133 138 142 141 141 143 145 147 151 153 155 153 149 147 148 150 153 157 163 169 170 167 166 168 171 174 176 178 178 180 185 187 181 179 184 186 184 185 189 192 190 185 182 182 184 185 187 188 183 178 179 179
89 252 253 235 290 256 140 124 150 151 180 282 263 264 2 53 145 347 52 52 25 32 77 89 91 94 96 85 95 134 131 119 121 126 129 137 143 140 140 145 146 146 149 153 156 156 153 151 151 153 156 160 165 167 167 166 165 167 169 172 176 180 182 184 185 183 179 181 185 184 183 185 187 186 183 181 181 181 181 183 184 181 176 176 179 179
24 330 276 54 11 261 160 111 84 73 336 322 318 92 74 75 79 23 51 74 63 57 83 104 108 107 103 92 87 125 132 130 128 126 125 129 135 139 141 144 145 145 146 149 152 155 158 157 156 157 159 162 164 164 165 168 166 164 165 170 173 175 176 177 177 175 176 182 183 179 180 182 181 179 179 179 180 181 183 183 180 176 175 178 180 181
25 345 323 19 37 63 88 70 56 342 302 305 36 82 76 77 73 50 63 75 69 69 99 116 114 109 103 97 89 101 119 127 130 133 130 126 130 137 138 137 139 141 145 149 150 151 155 158 158 158 158 161 162 162 165 168 166 161 162 166 169 169 168 168 170 171 175 181 178 176 177 178 177 177 178 179 181 185 187 187 181 175 176 181 183 184
31 357 339 359 100 90 56 50 50 355 318 331 52 88 95 94 77 56 68 73 64 76 101 115 113 109 105 102 100 100 112 123 129 137 137 133 135 137 131 131 136 138 142 148 149 149 153 155 155 154 154 156 159 161 163 163 161 161 163 166 170 172 170 170 170 169 172 175 172 171 174 175 176 179 180 180 184 188 191 187 179 175 179 184 187 189
53 23 359 54 127 153 34 27 26 20 6 2 10 53 82 83 72 61 62 61 59 75 92 104 106 103 100 104 109 112 116 120 123 127 130 130 130 130 129 131 135 137 143 150 152 152 152 153 154 154 154 153 154 157 160 161 163 167 168 168 172 173 169 168 166 163 168 173 171 171 174 176 178 180 182 183 184 185 185 182 178 179 184 187 190 195
18 346 337 44 57 80 101 53 18 36 44 24 15 28 45 55 67 66 57 53 58 69 88 100 103 102 99 99 108 114 113 112 114 116 122 126 127 129 133 134 133 137 143 149 154 154 150 152 157 157 156 156 153 154 161 166 169 173 173 170 171 170 166 165 166 167 172 175 173 172 174 177 179 182 184 183 180 178 180 182 185 189 189 189 193 196
349 344 329 37 55 70 81 45 10 29 49 30 21 27 35 47 66 68 62 69 73 64 70 82 83 86 96 102 113 119 115 111 110 112 121 126 126 127 132 134 137 144 147 150 153 153 152 159 165 164 164 165 159 155 158 163 167 172 172 170 171 172 171 171 172 173 174 174 174 175 177 180 183 185 183 177 174 179 185 187 190 194 194 195 199 200
356 9 348 15 55 59 45 29 20 34 40 14 11 20 35 48 60 62 65 75 80 72 65 66 64 66 81 98 110 118 119 118 115 117 123 125 124 127 132 136 141 146 151 155 153 149 154 168 171 169 170 167 160 157 158 159 161 165 169 173 179 184 183 179 174 171 169 170 174 178 181 182 184 183 178 175 178 186 189 189 192 196 194 196 200 200
20 50 28 39 70 52 34 40 51 58 44 12 9 12 28 48 56 61 64 71 81 86 81 70 66 68 73 78 86 95 106 113 117 122 125 124 127 131 134 141 147 144 149 155 151 145 151 164 167 171 172 164 158 158 160 161 160 160 166 174 181 182 181 177 171 169 169 171 174 180 185 184 182 179 177 177 183 190 189 186 189 194 195 197 198 197